Weather History for Kirksville, MO

Change the Weather History Date:

Saturday, July 6, 2013

  Actual Average Record
Temperature  
Mean Temperature 75 °F 74 °F  
Max Temperature 89 °F 85 °F 103 °F (2012)
Min Temperature 61 °F 64 °F 48 °F (1967)
Degree Days  
Heating Degree Days 0 0  
Month to date heating degree days 0 0  
Since 1 June heating degree days 36 16  
Since 1 July heating degree days 0 0  
Cooling Degree Days 10 9  
Month to date cooling degree days 33 54  
Year to date cooling degree days 308 308  
Since 1 June cooling degree days 240 246  
Growing Degree Days 26 (Base 50)    
Moisture  
Dew Point 65 °F    
Average Humidity 70    
Maximum Humidity 93    
Minimum Humidity 47    
Precipitation  
Precipitation 0.00 in 0.16 in 2.03 in (1963)
Month to date precipitation 0.00 0.75  
Year to date precipitation 27.91 19.68  
Sea Level Pressure  
Sea Level Pressure 29.98 in    
Wind  
Wind Speed 7 mph (SSE)    
Max Wind Speed 13 mph    
Max Gust Speed 18 mph    
Visibility 9 miles    
Events      
T = Trace of Precipitation, MM = Missing Value Source: NWS Daily Summary

Daily Weather History Graph

Daily Weather History Graph

Search for Another Location

Airport:

Trip Planner

Search our weather history database for the weather conditions in past years. The results will help you decide how hot, cold, wet, or windy it might be!

Date:

Astronomy

Jul. 06, 2013 Rise Set
Actual Time 5:47 AM CDT 8:42 PM CDT
Civil Twilight 5:15 AM CDT 9:14 PM CDT
Nautical Twilight 4:34 AM CDT 9:55 PM CDT
Astronomical Twilight 3:46 AM CDT 10:42 PM CDT
Moon 4:34 AM CDT (7/6) 7:23 PM CDT (7/6)
Length of Visible Light 15h 59m
Length of Day
14h 54m
Waning Crescent, 2% of the Moon is Illuminated
Jul 6
Waning Crescent
Jul 8
New
Jul 15
First Quarter
Jul 22
Full
Jul 29
Last Quarter

Hourly Weather History & Observations

Time (CDT) Temp. Heat Index Dew Point Humidity Pressure Visibility Wind Dir Wind Speed Gust Speed Precip Events Conditions
12:55 AM 66.0 °F - 61.0 °F 84% 30.01 in 10.0 mi South 5.8 mph - N/A   Clear
1:55 AM 64.0 °F - 60.1 °F 87% 30.01 in 9.0 mi SSE 5.8 mph - N/A   Clear
2:55 AM 63.0 °F - 60.1 °F 90% 30.01 in 9.0 mi SSE 8.1 mph - N/A   Clear
3:55 AM 63.0 °F - 60.1 °F 90% 30.01 in 8.0 mi South 4.6 mph - N/A   Clear
4:55 AM 62.1 °F - 59.0 °F 90% 30.00 in 8.0 mi SSE 5.8 mph - N/A   Clear
5:55 AM 62.1 °F - 60.1 °F 93% 30.01 in 6.0 mi SE 5.8 mph - N/A   Clear
6:55 AM 64.0 °F - 62.1 °F 93% 30.02 in 6.0 mi South 3.5 mph - N/A   Clear
7:55 AM 70.0 °F - 64.0 °F 81% 30.02 in 9.0 mi South 8.1 mph - N/A   Clear
8:55 AM 75.9 °F - 64.9 °F 69% 30.02 in 10.0 mi South 6.9 mph - N/A   Clear
9:55 AM 79.0 °F - 66.0 °F 64% 30.01 in 10.0 mi South 6.9 mph - N/A   Clear
10:55 AM 82.0 °F 84.1 °F 66.0 °F 58% 30.00 in 10.0 mi South 8.1 mph - N/A   Clear
11:55 AM 84.9 °F 87.6 °F 66.9 °F 55% 29.99 in 10.0 mi Variable 5.8 mph - N/A   Clear
12:55 PM 86.0 °F 88.2 °F 66.0 °F 51% 29.98 in 10.0 mi SSW 5.8 mph - N/A   Clear
1:55 PM 88.0 °F 92.1 °F 69.1 °F 53% 29.96 in 10.0 mi South 9.2 mph - N/A   Clear
2:55 PM 89.1 °F 93.7 °F 69.1 °F 52% 29.95 in 10.0 mi South 11.5 mph 16.1 mph N/A   Clear
3:55 PM 89.1 °F 92.1 °F 66.9 °F 48% 29.95 in 10.0 mi South 8.1 mph - N/A   Partly Cloudy
4:55 PM 88.0 °F 90.3 °F 66.0 °F 48% 29.94 in 10.0 mi SSE 11.5 mph - N/A   Clear
5:55 PM 86.0 °F 88.2 °F 66.0 °F 51% 29.93 in 10.0 mi SSE 6.9 mph - N/A   Clear
6:55 PM 84.0 °F 86.3 °F 66.0 °F 55% 29.94 in 10.0 mi South 6.9 mph - N/A   Mostly Cloudy
7:55 PM 79.0 °F - 66.9 °F 66% 29.94 in 8.0 mi SSE 5.8 mph - N/A   Scattered Clouds
8:55 PM 78.1 °F - 66.0 °F 66% 29.95 in 9.0 mi SE 8.1 mph - N/A   Scattered Clouds
9:55 PM 75.0 °F - 66.0 °F 73% 29.96 in 10.0 mi SE 8.1 mph - N/A   Clear
10:55 PM 73.9 °F - 66.0 °F 76% 29.97 in 9.0 mi South 6.9 mph - N/A   Mostly Cloudy
11:55 PM 70.0 °F - 64.9 °F 84% 29.98 in 8.0 mi South 5.8 mph - N/A   Clear